sat.trackr.live / text

‹ back to catalog

STARLINK-2389

NORAD 47808 · 2021-018X

PAYLOAD ACTIVE UNKNOWN

§ Identity

Operator
Country
US
Launch date
2021-03-11
Launch site
AFETR
Launch vehicle
Mass (kg)
RCS (m²)

Purposes: comms

External: N2YO · Heavens-Above · Gunter

§ Orbital elements

Epoch: 2026-05-25T00:10:46.106112Z

Period
94.01 min
Inclination
53.1579°
Eccentricity
0.0000379
Mean motion
15.31698983 rev/d
Perigee alt
470.5 km
Apogee alt
471.0 km
Semi-major
6,848.9 km
B*
-3.5480e-5
RAAN
247.6906°
Arg perigee
77.2680°
Mean anomaly
282.8364°
Rev number
28,847

§ Raw data

STARLINK-23891 47808U 21018X   26145.00747808 -.00001465  00000+0 -35480-4 0  99922 47808  53.1579 247.6906 0000379  77.2680 282.8364 15.31698983288477

JSON: /api/v1/satellites/47808 · /tle

For live sub-satellite position, see the globe view (requires WebGL).

§ Visibility from observer

Set your observer location to see the next 7 days of passes ≥ 10°. The values pass through the URL so the page stays shareable.

No JS? Fill the form by hand. The geolocation button needs JavaScript.